Kansas Department of Transportation
RWIS(Road and Runway Information System) Map and Weather Data





Station
Surface
Air
Wind
Site IDSensor TypeLocationTemperature (°F)Temperature (°F)Humidity (%)Speed (mi/h)Gusts (mi/h)DirectionTime
123002AtmosphericBonner Springs 464612SEDec 17 2017 1:25AM
123002ApproachBonner Springs46     Dec 17 2017 1:25AM
123002DeckBonner Springs46     Dec 17 2017 1:25AM
123014AtmosphericBull Creek 484258SEDec 17 2017 1:25AM
123014DeckBull Creek48     Dec 17 2017 1:25AM
123014DepartureBull Creek46     Dec 17 2017 1:25AM
123015AtmosphericLeavenworth 484647SSWDec 17 2017 1:25AM
123015DeckLeavenworth43     Dec 17 2017 1:25AM
123015DepartureLeavenworth45     Dec 17 2017 1:25AM
123020AtmosphericMayetta 464267SDec 17 2017 1:25AM
123020RoadwayMayetta46     Dec 17 2017 1:25AM
123020DeckMayetta46     Dec 17 2017 1:25AM
505000AtmosphericKTA 1 459047SSEDec 17 2017 1:20AM
505000ApproachKTA 146     Dec 17 2017 1:20AM
505000DeckKTA 146     Dec 17 2017 1:20AM
505001AtmosphericKTA 2 459849SDec 17 2017 1:20AM
505001ApproachKTA 246     Dec 17 2017 1:20AM
505001DeckKTA 246     Dec 17 2017 1:20AM
505002AtmosphericKTA 3 439947SSWDec 17 2017 1:20AM
505002ApproachKTA 346     Dec 17 2017 1:20AM
505002DeckKTA 346     Dec 17 2017 1:20AM
505003AtmosphericKTA 4 438669NNEDec 17 2017 1:20AM
505003ApproachKTA 445     Dec 17 2017 1:20AM
505003DeckKTA 445     Dec 17 2017 1:20AM
505004AtmosphericKTA 5 4399812SWDec 17 2017 1:20AM
505004RoadwayKTA 545     Dec 17 2017 1:20AM
505004RoadwayKTA 545     Dec 17 2017 1:20AM
505005AtmosphericKTA 6 4661710SSEDec 17 2017 1:20AM
505005Approach KTA 645     Dec 17 2017 1:20AM
505005DeckKTA 645     Dec 17 2017 1:20AM
505006AtmosphericKTA 7 465524SDec 17 2017 1:20AM
505006ApproachKTA 7Unavailable     Dec 17 2017 1:20AM
505006DeckKTA 746     Dec 17 2017 1:20AM
505007AtmosphericKTA 8 485457SDec 17 2017 1:20AM
505007ApproachKTA 846     Dec 17 2017 1:20AM
505007DeckKTA 846     Dec 17 2017 1:20AM
505008AtmosphericKTA 9 435411SEDec 17 2017 1:20AM
505008ApproachKTA 945     Dec 17 2017 1:20AM
505008DeckKTA 946     Dec 17 2017 1:20AM
505009AtmosphericKTA 10 573812SDec 17 2017 1:20AM
505009ApproachKTA 1046     Dec 17 2017 1:20AM
505009DeckKTA 1046     Dec 17 2017 1:20AM
505010AtmosphericWebb 4343610ESEDec 17 2017 1:25AM
505010DeckWebb45     Dec 17 2017 1:25AM
505010NullWebb46     Dec 17 2017 1:25AM
505014AtmosphericI-135 4882713SDec 17 2017 1:25AM
505014ApproachI-13546     Dec 17 2017 1:25AM
505014DeckI-13546     Dec 17 2017 1:25AM
540000AtmosphericBlue Rapids 455212ENEDec 17 2017 1:25AM
540000DeckBlue Rapids43     Dec 17 2017 1:25AM
540000DepartureBlue Rapids41     Dec 17 2017 1:25AM
540001AtmosphericSabetha 435247SDec 17 2017 1:25AM
540001ApproachSabetha41     Dec 17 2017 1:25AM
540001DeckSabetha41     Dec 17 2017 1:25AM
540002AtmosphericWestgate 464411NEDec 17 2017 1:25AM
540002DeckWestgate46     Dec 17 2017 1:25AM
540002DepartureWestgate46     Dec 17 2017 1:25AM
540003AtmosphericEmporia 458359SSWDec 17 2017 1:25AM
540003ApproachEmporia45     Dec 17 2017 1:25AM
540003DeckEmporia46     Dec 17 2017 1:25AM
540005AtmosphericLawrence 464724EDec 17 2017 1:25AM
540005ApproachLawrenceUnavailable     Dec 17 2017 1:25AM
540005DeckLawrence97     Dec 17 2017 1:25AM
540006AtmosphericTroy      Dec 16 2017 4:55PM
540006DeckTroy      Dec 16 2017 4:55PM
540006DepartureTroy      Dec 16 2017 4:55PM
540007AtmosphericManhattan 484222WSWDec 17 2017 1:25AM
540007DepartureManhattan46     Dec 17 2017 1:25AM
540007DeckManhattan46     Dec 17 2017 1:25AM
541001AtmosphericSyracuse 30801421NNEDec 17 2017 1:25AM
541001Out of Service for WinterSyracuse30     Dec 17 2017 1:25AM
541001DeckSyracuse30     Dec 17 2017 1:25AM
541002AtmosphericLiberal 416027ESEDec 17 2017 1:25AM
541002ApproachLiberalUnavailable     Dec 17 2017 1:25AM
541002DeckLiberalUnavailable     Dec 17 2017 1:25AM
541003AtmosphericFord 417646ESEDec 17 2017 1:25AM
541003DeckFord43     Dec 17 2017 1:25AM
541003DepartureFord43     Dec 17 2017 1:25AM
541004AtmosphericScott 301267SEDec 17 2017 1:25AM
541004DepartureScott34     Dec 17 2017 1:25AM
541005AtmosphericNess 453946SSWDec 17 2017 1:25AM
541005DeckNess43     Dec 17 2017 1:25AM
541005DepartureNess43     Dec 17 2017 1:25AM
541007AtmosphericGarden City 365868NNWDec 17 2017 1:25AM
541007ApproachGarden City39     Dec 17 2017 1:25AM
541007DeckGarden City39     Dec 17 2017 1:25AM
543000AtmosphericJunction City 5043914NNEDec 17 2017 1:25AM
543000ApproachJunction City48     Dec 17 2017 1:25AM
543000DeckJunction City48     Dec 17 2017 1:25AM
543001AtmosphericEllsworth 50301114NWDec 17 2017 1:25AM
543001RoadwayEllsworth46     Dec 17 2017 1:25AM
543002AtmosphericMcPherson 4390911SDec 17 2017 1:25AM
543002ApproachMcPherson43     Dec 17 2017 1:25AM
543002DeckMcPherson45     Dec 17 2017 1:25AM
543003AtmosphericSalina 50281217NDec 17 2017 1:25AM
543003DepartureSalina48     Dec 17 2017 1:25AM
543003RoadwaySalina48     Dec 17 2017 1:25AM
543004AtmosphericConcordia 435312NNEDec 17 2017 1:25AM
543004ApproachConcordia43     Dec 17 2017 1:25AM
543004DeckConcordia43     Dec 17 2017 1:25AM
543005AtmosphericPeabody 369667SDec 17 2017 1:25AM
543005ApproachPeabody45     Dec 17 2017 1:25AM
543005DeckPeabodyUnavailable     Dec 17 2017 1:25AM
560000AtmosphericEdson 34941216NEDec 17 2017 1:25AM
560000RoadwayEdson34     Dec 17 2017 1:25AM
560000RoadwayEdson34     Dec 17 2017 1:25AM
560001AtmosphericOakley 32881112NNEDec 17 2017 1:25AM
560001ApproachOakley34     Dec 17 2017 1:25AM
560001DeckOakley34     Dec 17 2017 1:25AM
560002AtmosphericAtwood 3684613NNEDec 17 2017 1:25AM
560002ApproachAtwood36     Dec 17 2017 1:25AM
560002DeckAtwood37     Dec 17 2017 1:25AM
560003AtmosphericJennings 329947ENEDec 17 2017 1:25AM
560003ApproachJennings36     Dec 17 2017 1:25AM
560003DeckJennings34     Dec 17 2017 1:25AM
560003DeckJennings34     Dec 17 2017 1:25AM
560004AtmosphericWakeeney 3667610NDec 17 2017 1:25AM
560004ApproachWakeeney39     Dec 17 2017 1:25AM
560004DeckWakeeney37     Dec 17 2017 1:25AM
560005AtmosphericWalker 415134NEDec 17 2017 1:25AM
560005ApproachWalker43     Dec 17 2017 1:25AM
560005DeckWalker57     Dec 17 2017 1:25AM
560006AtmosphericBow Creek(Stockton) 377315NNEDec 17 2017 1:25AM
560006ApproachBow Creek(Stockton)39     Dec 17 2017 1:25AM
560006DeckBow Creek(Stockton)37     Dec 17 2017 1:25AM
560007AtmosphericLebanon 3672810NEDec 17 2017 1:25AM
560007ApproachLebanon37     Dec 17 2017 1:25AM
560007DeckLebanon37     Dec 17 2017 1:25AM
560008AtmosphericWallace 3279712NEDec 17 2017 1:25AM
560008ApproachWallace34     Dec 17 2017 1:25AM
560008DeckWallace34     Dec 17 2017 1:25AM
572000AtmosphericGreat Bend 4847711SSWDec 17 2017 1:25AM
572000ApproachGreat Bend46     Dec 17 2017 1:25AM
572000DeckGreat Bend48     Dec 17 2017 1:25AM
572001AtmosphericPratt 436400EDec 17 2017 1:25AM
572001ApproachPratt43     Dec 17 2017 1:25AM
572001DeckPratt45     Dec 17 2017 1:25AM
572002AtmosphericAnthony 466836SDec 17 2017 1:25AM
572002ApproachAnthony46     Dec 17 2017 1:25AM
572002DeckAnthony46     Dec 17 2017 1:25AM
573000AtmosphericEureka 469359SSEDec 17 2017 1:25AM
573000DeckEurekaUnavailable     Dec 17 2017 1:25AM
573000DepartureEureka45     Dec 17 2017 1:25AM
573001AtmosphericGarnett 466246SWDec 17 2017 1:25AM
573001ApproachGarnett45     Dec 17 2017 1:25AM
573001DeckGarnett46     Dec 17 2017 1:25AM
573002AtmosphericCaney 457735ESEDec 17 2017 1:25AM
573002RoadwayCaney48     Dec 17 2017 1:25AM
573003AtmosphericChetopa 439724ESEDec 17 2017 1:25AM
573003DeckChetopa45     Dec 17 2017 1:25AM
573003DeckChetopa45     Dec 17 2017 1:25AM
573003DepartureChetopa45     Dec 17 2017 1:25AM
573004AtmosphericChanute 459939SEDec 17 2017 1:25AM
573004ApproachChanute46     Dec 17 2017 1:25AM
573004DeckChanute46     Dec 17 2017 1:25AM